Simultaneous Nadir Overpasses (SNOs) Predictions

Prediction of SNOs between GOES-16 and METOP-C Satellite Orbit:

Table of predicted SNOs for the next 14.0 days since TLE Epoch: 8/10/2024
Index Date Time (GOES-16) GOES-16 Lat,Lon METOP-C Lat,Lon Distance(km) Time Diff (sec)
1 08/11/2024 02:44:05 0.03, -75.21 -0.71, -78.58 383.68 80
2 08/12/2024 02:26:06 0.02, -75.21 0.38, -73.58 186.09 80
3 08/13/2024 14:42:19 -0.02, -75.22 0.61, -78.14 332.52 80
4 08/14/2024 14:24:20 -0.02, -75.23 -0.48, -73.14 237.37 80
5 08/16/2024 02:40:40 0.02, -75.23 -0.52, -77.74 285.37 80
6 08/17/2024 02:22:41 0.02, -75.24 0.58, -72.74 284.54 80
7 08/18/2024 14:38:53 -0.03, -75.25 0.45, -77.30 233.49 80
8 08/19/2024 14:20:53 -0.03, -75.26 -0.66, -72.30 337.01 80
9 08/21/2024 02:39:54 0.02, -75.28 -0.32, -76.90 184.26 80
10 08/22/2024 02:16:34 0.02, -75.29 0.80, -71.90 386.64 80
11 08/23/2024 14:35:27 -0.02, -75.32 0.21, -76.47 129.93 80
